Zurück zum Katalog

SL-8 R/B

AktivPO
NORAD 13950·ROCKET BODY·🇷🇺 Russia

Gestartet Mar 30, 1983 von Plesetsk Cosmodrome

Loading…

Nächste Überflüge (nächste 24 Stunden)

TLE

AktuellSource: Space-Track

Epoche: Sep 14, 2026, 04:09 UTC

1 13950U 83023B   26257.17295302  .00000073  00000-0  57874-4 0  9990
2 13950  82.9588 345.5953 0037304 173.4002 186.7655 13.77190994183200

Verfolge SL-8 R/B in Echtzeit mit AllMySat

Download on the App Store